When you browse on this site, cookies collect data to enhance your experience and personalize the content and advertising you see.
Visit our Privacy Policy to learn more. By continuing to use the site, you agree to this use of cookies and data.
  • în România
  • Lista ţărilor
  • Pe 7 zile
  • Temperatura apei
  • Meteo pe hartă
  • Widget-uri
  • user-avatar
    Intrare

    Meteo pe oră la Petraki

    Astăzi, 28 Mai, Joi

    Timp Temperatura Precipitaţii Vânt Presiune Umiditate
    00:00 +12°C° 0 mm 1 m/s 747 mmHg 71%
    01:00 +12°C° 0 mm 1 m/s 747 mmHg 72%
    02:00 +12°C° 0 mm 1 m/s 748 mmHg 72%
    03:00 +12°C° 0 mm 1 m/s 747 mmHg 72%
    04:00 +12°C° 0 mm 1 m/s 747 mmHg 72%
    05:00 +13°C° 0 mm 1 m/s 747 mmHg 73%
    06:00 +14°C° 0 mm 1 m/s 747 mmHg 67%
    07:00 +16°C° 0 mm 1 m/s 747 mmHg 62%
    08:00 +18°C° 0 mm 1 m/s 747 mmHg 57%
    09:00 +19°C° 0 mm 1 m/s 747 mmHg 51%
    10:00 +21°C° 0 mm 1 m/s 747 mmHg 45%
    11:00 +22°C° 0 mm 1 m/s 747 mmHg 39%
    12:00 +21°C° 0.1 mm 1 m/s 747 mmHg 42%
    13:00 +21°C° 0.1 mm 1 m/s 747 mmHg 45%
    14:00 +20°C° 0.1 mm 2 m/s 747 mmHg 48%
    15:00 +20°C° 0 mm 1 m/s 747 mmHg 49%
    16:00 +20°C° 0 mm 1 m/s 746 mmHg 50%
    17:00 +20°C° 0 mm 1 m/s 746 mmHg 51%
    18:00 +18°C° 0 mm 1 m/s 746 mmHg 59%
    19:00 +16°C° 0 mm 1 m/s 746 mmHg 68%
    20:00 +14°C° 0 mm 1 m/s 746 mmHg 77%
    21:00 +13°C° 0 mm 1 m/s 746 mmHg 82%
    22:00 +12°C° 0 mm 1 m/s 746 mmHg 87%
    23:00 +10°C° 0 mm 2 m/s 746 mmHg 92%

    Mâine, 29 Mai, Vineri

    Timp Temperatura Precipitaţii Vânt Presiune Umiditate
    00:00 +9°C° 0 mm 2 m/s 746 mmHg 93%
    01:00 +9°C° 0 mm 2 m/s 746 mmHg 94%
    02:00 +9°C° 0 mm 2 m/s 746 mmHg 95%
    03:00 +9°C° 0 mm 3 m/s 745 mmHg 94%
    04:00 +9°C° 0 mm 3 m/s 745 mmHg 92%
    05:00 +10°C° 0 mm 3 m/s 745 mmHg 91%
    06:00 +11°C° 0 mm 3 m/s 745 mmHg 86%
    07:00 +12°C° 0 mm 3 m/s 745 mmHg 82%
    08:00 +13°C° 0 mm 4 m/s 744 mmHg 78%
    09:00 +14°C° 0.1 mm 4 m/s 744 mmHg 74%
    10:00 +15°C° 0.1 mm 4 m/s 744 mmHg 70%
    11:00 +18°C° 0.1 mm 4 m/s 744 mmHg 66%
    12:00 +17°C° 0.3 mm 4 m/s 744 mmHg 71%
    13:00 +16°C° 0.3 mm 3 m/s 744 mmHg 76%
    14:00 +16°C° 0.3 mm 3 m/s 743 mmHg 81%
    15:00 +16°C° 0.1 mm 3 m/s 743 mmHg 83%
    16:00 +14°C° 0.1 mm 3 m/s 743 mmHg 84%
    17:00 +14°C° 0.1 mm 3 m/s 743 mmHg 85%
    18:00 +14°C° 0 mm 3 m/s 743 mmHg 85%
    19:00 +14°C° 0 mm 3 m/s 743 mmHg 85%
    20:00 +13°C° 0 mm 3 m/s 743 mmHg 85%
    21:00 +13°C° 0 mm 3 m/s 743 mmHg 85%
    22:00 +13°C° 0 mm 3 m/s 744 mmHg 85%
    23:00 +12°C° 0 mm 3 m/s 744 mmHg 86%

    Poimâine, 30 Mai, Sâmbătă

    Timp Temperatura Precipitaţii Vânt Presiune Umiditate
    00:00 +12°C° 0 mm 3 m/s 744 mmHg 87%
    01:00 +11°C° 0 mm 4 m/s 744 mmHg 88%
    02:00 +11°C° 0 mm 4 m/s 744 mmHg 89%
    03:00 +11°C° 0 mm 4 m/s 744 mmHg 88%
    04:00 +11°C° 0 mm 4 m/s 744 mmHg 86%
    05:00 +12°C° 0 mm 4 m/s 744 mmHg 84%
    06:00 +13°C° 0 mm 5 m/s 744 mmHg 79%
    07:00 +14°C° 0 mm 5 m/s 744 mmHg 74%
    08:00 +15°C° 0 mm 5 m/s 744 mmHg 68%
    09:00 +16°C° 0 mm 6 m/s 744 mmHg 63%
    10:00 +17°C° 0 mm 6 m/s 744 mmHg 58%
    11:00 +20°C° 0 mm 6 m/s 744 mmHg 52%
    12:00 +20°C° 0 mm 6 m/s 744 mmHg 51%
    13:00 +20°C° 0 mm 6 m/s 744 mmHg 50%
    14:00 +21°C° 0 mm 6 m/s 744 mmHg 49%
    15:00 +20°C° 0 mm 5 m/s 744 mmHg 52%
    16:00 +20°C° 0 mm 5 m/s 743 mmHg 56%
    17:00 +19°C° 0 mm 5 m/s 743 mmHg 60%
    18:00 +17°C° 0 mm 5 m/s 743 mmHg 62%
    19:00 +16°C° 0 mm 5 m/s 743 mmHg 65%
    20:00 +15°C° 0 mm 5 m/s 743 mmHg 68%
    21:00 +15°C° 0 mm 5 m/s 743 mmHg 67%
    22:00 +14°C° 0 mm 5 m/s 744 mmHg 66%
    23:00 +13°C° 0 mm 5 m/s 744 mmHg 65%

    31 Mai, Duminică

    Timp Temperatura Precipitaţii Vânt Presiune Umiditate
    00:00 +13°C° 0 mm 5 m/s 744 mmHg 67%
    01:00 +12°C° 0 mm 5 m/s 744 mmHg 68%
    02:00 +12°C° 0 mm 5 m/s 744 mmHg 70%
    03:00 +12°C° 0 mm 5 m/s 744 mmHg 69%
    04:00 +10°C° 0 mm 5 m/s 744 mmHg 68%
    05:00 +10°C° 0 mm 5 m/s 744 mmHg 67%
    06:00 +13°C° 0 mm 6 m/s 745 mmHg 62%
    07:00 +14°C° 0 mm 6 m/s 745 mmHg 57%
    08:00 +15°C° 0 mm 7 m/s 745 mmHg 52%
    09:00 +17°C° 0 mm 7 m/s 745 mmHg 49%
    10:00 +18°C° 0 mm 7 m/s 745 mmHg 45%
    11:00 +20°C° 0 mm 7 m/s 745 mmHg 41%
    12:00 +20°C° 0 mm 6 m/s 745 mmHg 40%
    13:00 +21°C° 0 mm 6 m/s 745 mmHg 39%
    14:00 +21°C° 0 mm 6 m/s 745 mmHg 38%
    15:00 +21°C° 0 mm 6 m/s 745 mmHg 40%
    16:00 +20°C° 0 mm 5 m/s 745 mmHg 42%
    17:00 +20°C° 0 mm 5 m/s 745 mmHg 45%
    18:00 +18°C° 0 mm 4 m/s 746 mmHg 52%
    19:00 +15°C° 0 mm 4 m/s 746 mmHg 59%
    20:00 +14°C° 0 mm 3 m/s 746 mmHg 66%
    21:00 +13°C° 0 mm 3 m/s 747 mmHg 65%
    22:00 +12°C° 0 mm 3 m/s 747 mmHg 63%
    23:00 +11°C° 0 mm 3 m/s 748 mmHg 61%

    1 Iunie, Luni

    Timp Temperatura Precipitaţii Vânt Presiune Umiditate
    00:00 +10°C° 0 mm 3 m/s 748 mmHg 64%
    01:00 +9°C° 0 mm 3 m/s 748 mmHg 67%
    02:00 +8°C° 0 mm 2 m/s 748 mmHg 70%
    03:00 +8°C° 0 mm 2 m/s 748 mmHg 70%
    04:00 +8°C° 0 mm 2 m/s 748 mmHg 70%
    05:00 +8°C° 0 mm 2 m/s 748 mmHg 70%
    06:00 +10°C° 0 mm 2 m/s 748 mmHg 65%
    07:00 +13°C° 0 mm 2 m/s 748 mmHg 59%
    08:00 +15°C° 0 mm 2 m/s 748 mmHg 54%
    09:00 +16°C° 0 mm 2 m/s 748 mmHg 54%
    10:00 +16°C° 0 mm 3 m/s 748 mmHg 54%
    11:00 +17°C° 0 mm 3 m/s 748 mmHg 54%
    12:00 +18°C° 0.1 mm 3 m/s 748 mmHg 57%
    13:00 +18°C° 0.1 mm 3 m/s 747 mmHg 60%
    14:00 +18°C° 0.1 mm 2 m/s 747 mmHg 63%
    15:00 +18°C° 0.1 mm 2 m/s 747 mmHg 64%
    16:00 +18°C° 0.1 mm 2 m/s 747 mmHg 65%
    17:00 +18°C° 0.1 mm 2 m/s 747 mmHg 66%
    18:00 +17°C° 0.1 mm 2 m/s 747 mmHg 71%
    19:00 +15°C° 0.1 mm 1 m/s 747 mmHg 77%
    20:00 +14°C° 0.1 mm 1 m/s 747 mmHg 83%
    21:00 +13°C° 0 mm 1 m/s 747 mmHg 85%
    22:00 +12°C° 0 mm 1 m/s 747 mmHg 88%
    23:00 +10°C° 0 mm 1 m/s 747 mmHg 91%

    2 Iunie, Marţi

    Timp Temperatura Precipitaţii Vânt Presiune Umiditate
    00:00 +10°C° 0 mm 1 m/s 747 mmHg 91%
    01:00 +9°C° 0 mm 0 m/s 747 mmHg 92%
    02:00 +8°C° 0 mm 0 m/s 747 mmHg 93%
    03:00 +10°C° 0 mm 1 m/s 747 mmHg 93%
    04:00 +10°C° 0 mm 1 m/s 747 mmHg 92%
    05:00 +11°C° 0 mm 1 m/s 747 mmHg 91%
    06:00 +13°C° 0 mm 1 m/s 747 mmHg 84%
    07:00 +15°C° 0 mm 2 m/s 747 mmHg 77%
    08:00 +16°C° 0 mm 2 m/s 747 mmHg 70%
    09:00 +17°C° 0.1 mm 3 m/s 747 mmHg 64%
    10:00 +18°C° 0.1 mm 3 m/s 747 mmHg 59%
    11:00 +18°C° 0.1 mm 3 m/s 747 mmHg 54%
    12:00 +19°C° 0 mm 3 m/s 747 mmHg 51%
    13:00 +19°C° 0 mm 2 m/s 747 mmHg 49%
    14:00 +20°C° 0 mm 2 m/s 747 mmHg 47%
    15:00 +20°C° 0 mm 2 m/s 747 mmHg 48%
    16:00 +20°C° 0 mm 2 m/s 746 mmHg 48%
    17:00 +19°C° 0 mm 2 m/s 746 mmHg 49%
    18:00 +19°C° 0 mm 1 m/s 746 mmHg 56%
    19:00 +16°C° 0 mm 1 m/s 746 mmHg 63%
    20:00 +15°C° 0 mm 1 m/s 746 mmHg 71%
    21:00 +13°C° 0 mm 1 m/s 746 mmHg 74%
    22:00 +12°C° 0 mm 1 m/s 746 mmHg 77%
    23:00 +11°C° 0 mm 1 m/s 747 mmHg 80%
    Arată mai mult